www.pogodaiklimat.ru

Погода и климат >> Архив погоды >> Россия >> Новосибирская область >> Венгерово


ПОГОДА в Венгерово

  • Прогноз погоды в Венгерово
  • Монитор погоды в Венгерово

АРХИВ ПОГОДЫ в Венгерово

Время (UTC), дата Ветер
(напр.,м/с)
 
Видим.   Явления Облачность Т
(С)
Тd
(С)
f
(%)
Тe
(С)
Тes
(С)
Комфортность P
(гПа)
Po
(гПа)
Тmin
(С)
Tmax
(С)
R
(мм)
R24
(мм)
S
(см)
00 18.03 СЗ 1 20 км ясно -15.8 -17.9 84 -18 -18 1035.4 1021.0 -15.8 29
03 18.03 штиль 0 10 км ясно -11.2 -13.5 83 -11 -9 1036.9 1022.7 -18.3
06 18.03 ЮЗ 1 20 км 2 балла -3.6 -11.1 56 -5 +1 1037.8 1024.0
09 18.03 З 3 20 км 2 балла -2.7 -10.5 55 -7 -4 1037.8 1024.0
12 18.03 З 2 20 км 3/0
[Ci fib]
-3.0 -9.6 60 -7 -6 1036.1 1022.3 -2.0
15 18.03 З 2 20 км ясно -9.5 -12.9 76 -14 -14 1036.8 1022.7
18 18.03 З 2 20 км ясно -11.8 -14.2 82 -16 -16 1037.0 1022.7
21 18.03 З 2 20 км 6 баллов -11.2 -13.1 86 -16 -16 1036.9 1022.7
00 19.03 З 1 20 км 9/0
[Ac As Ci]
-12.4 -13.8 89 -15 -15 1035.4 1021.2 -13.4 28
03 19.03 З 3 20 км 10/0
[Ac As]
-8.4 -11.2 80 -14 -14 1036.8 1022.7
06 19.03 СЗ 3 20 км 6 баллов -4.2 -9.8 65 -9 -7 1035.1 1021.3
09 19.03 З 4 20 км 3/0
[Ci ing]
-2.2 -9.8 56 -8 -5 1035.0 1021.3
12 19.03 З 3 20 км 1/0
[Ci fib]
-2.0 -10.3 53 -6 -6 1033.7 1020.0 -1.6
15 19.03 З 3 20 км 1/0
[Cc]
-5.2 -11.5 61 -10 -10 1035.2 1021.3
18 19.03 СЗ 2 20 км 2 балла -6.8 -12.1 66 -11 -11 1036.7 1022.7
21 19.03 З 1 20 км 9/0
[Ac und]
-7.6 -10.9 77 -10 -10 1036.7 1022.7
00 20.03 СЗ 1 10 км 4/0
[Ac As Ci fib]
-9.5 -11.8 83 -12 -12 1035.7 1021.7 -9.5 28
03 20.03 З 2 10 км 7 баллов -8.0 -9.6 88 -12 -12 1036.7 1022.7 -11.8
06 20.03 З 1 20 км 4 балла -2.3 -9.0 60 -4 +1 1036.4 1022.7
09 20.03 З 3 20 км 1 балл -0.3 -8.0 56 -4 -0 1036.3 1022.7
12 20.03 ЮЗ 3 20 км 3/0
[Ci fib]
-1.4 -7.5 63 -6 -6 1034.6 1021.0 +0.2
15 20.03 Ю 2 20 км 4 балла -7.2 -10.7 76 -12 -12 1035.3 1021.3
18 20.03 Ю 3 20 км ясно -8.6 -11.7 78 -14 -14 1034.0 1020.0
21 20.03 ЮВ 2 20 км ясно -11.2 -13.1 86 -16 -16 1034.2 1020.0
00 21.03 Ю 2 10 км ясно -12.1 -13.4 90 -17 -17 1032.2 1018.1 -13.2 28
03 21.03 Ю 2 20 км ясно -10.1 -12.0 86 -15 -12 1032.8 1018.7 -13.7
06 21.03 Ю 3 20 км ясно -1.7 -8.4 60 -6 -0 1030.9 1017.3
09 21.03 Ю 5 20 км ясно 0.0 -7.0 59 -6 -3 1029.5 1016.0
12 21.03 Ю 5 20 км 4/0
[Ci fib]
-1.0 -7.1 63 -7 -7 1027.4 1013.9 +0.1
15 21.03 Ю 4 20 км 3/0
[Ci fib]
-4.6 -8.3 75 -11 -11 1027.0 1013.3
18 21.03 Ю 3 20 км ясно -7.1 -9.6 82 -13 -13 1025.8 1012.0
21 21.03 Ю 4 20 км 1 балл -7.2 -9.7 82 -14 -14 1023.1 1009.3
00 22.03 ЮВ 2 20 км 4/0
[Ci fib]
-11.1 -12.6 89 -16 -16 1021.1 1007.2 -11.1 26
03 22.03 ЮВ 2 4000 м дымка 6 баллов -8.1 -10.5 83 -13 -12 1021.8 1008.0 -11.3
06 22.03 Ю 3 10 км 6 баллов -2.8 -7.1 72 -8 -5 1021.6 1008.0
09 22.03 ЮЗ 2 20 км 9 баллов -0.2 -5.8 66 -3 -3 1021.4 1008.0
12 22.03 ЮЗ 2 20 км 3/0
[Ci fib]
+0.4 -4.2 71 -3 -2 1020.1 1006.7 +1.0
15 22.03 Ю 2 20 км ясно -4.0 -6.5 83 -8 -8 1021.6 1008.0
18 22.03 В 1 20 км ясно -7.2 -7.9 95 -10 -10 1021.8 1008.0
21 22.03 ЮВ 2 2000 м дымка 9 баллов -8.5 -9.2 95 -13 -13 1021.9 1008.0
00 23.03 В 1 4000 м дымка 9/0
[Ac und]
-6.7 -7.3 95 -9 -9 1019.7 1006.1 -8.8 26
03 23.03 В 2 4000 м дымка 9 баллов -4.6 -5.1 96 -9 -9 1020.3 1006.7
06 23.03 В 3 10 км 4 балла -0.8 -4.0 79 -6 -2 1020.1 1006.7
09 23.03 ЮВ 3 20 км 7 баллов +2.0 -2.1 74 -2 -1 1018.6 1005.3
12 23.03 ЮЗ 2 20 км 1/0
[Ac trans]
+1.8 -2.3 74 -1 -1 1017.6 1004.3 +2.9
15 23.03 З 2 20 км ясно -1.3 -4.0 82 -5 -5 1018.8 1005.3
18 23.03 З 1 10 км ясно -5.3 -6.1 94 -8 -8 1019.0 1005.3
21 23.03 штиль 0 4000 м дымка ясно -6.3 -6.8 96 -7 -7 1020.4 1006.7
00 24.03 З 1 2000 м местами туман поземный ясно -8.0 -8.7 95 -10 -10 1019.5 1005.8 -9.5 24
03 24.03 З 1 4000 м дымка 4 балла -5.5 -6.0 96 -8 -6 1021.7 1008.0
12 24.03 З 3 20 км ясно +3.3 -2.8 64 -0 0 1020.7 1007.5 +4.7

 

Местоположение метеостанции Венгерово (Новосибирская область, Россия): широта 55.67 долгота 76.72 высота над уровнем моря 106 м.

В архиве по умолчанию представлена погода в Венгерово за последнюю неделю. Архивные данные за месяц целиком и за предыдущие месяцы, начиная с января 2011 года, Вы можете получить, выбрав интересующий диапазон дат из раскрывающегося списка и нажав кнопку "Ввод!".


*Определитесь, кто Вы:
робот инопланетянин человек

Внимание! Время в таблицах - всемирное. Для получения местного времени необходимо прибавить поправку, которая равна 7 ч.

Смотрите также архив погоды в соседних городах и на ближайших метеорологических станциях:

Погода в Чанах (Новосибирская область, Россия) (39 км)
Погода в Усть-Тарке (Новосибирская область, Россия) (66 км)
Погода в Татарске (Новосибирская область, Россия) (67 км)
Погода в Квашнино (Новосибирская область, Россия) (101 км)
Погода в Кыштовке (Новосибирская область, Россия) (104 км)
Погода в Чистоозерном (Новосибирская область, Россия) (108 км)
Погода в Барабинске (Новосибирская область, Россия) (111 км)
Погода в Нижней Омке (Омская область, Россия) (116 км)
Погода в Муромцево (Омская область, Россия) (119 км)
Погода в Северном (Новосибирская область, Россия) (126 км)

Пояснения к столбцам:

Ветер - указаны скорость ветра в м/с - средняя за 10 мин, порывы в срок и между сроками (в фигурных скобках) и направление, откуда дует ветер: С - северный, СВ - северо-восточный, В - восточный, ЮВ - юго-восточный, Ю - южный, ЮЗ - юго-западный, З - западный, СЗ - северо-западный.
Видимость - горизонтальная дальность видимости в метрах или километрах. При видимости от 1 до 10 км при отсутствии осадков обычно наблюдается дымка, при ухудшении видимости до 1 км и менее - туман. В сухую погоду видимость может ухудшаться дымом, пылью или мглою.
Явления - указаны атмосферные явления, наблюдавшиеся в срок или в последний час перед сроком; фигурными скобками обозначены явления, наблюдавшиеся между сроками (за 1-3 часа до срока); квадратными скобками обозначены град или гололедные отложения с указанием их диаметра в мм.
Облачность - указаны через наклонную черту общая и нижняя облачность в баллах и высота нижней границы облаков в метрах; квадратными скобками обозначены формы облаков: Ci - перистые, Cs - перисто-слоистые, Cc - перисто-кучевые, Ac - высококучевые, As - высокослоистые, Sc - слоисто-кучевые, Ns - слоисто-дождевые, Cu - кучевые, Cb - кучево-дождевые. Подробнее классификацию облаков см. в Атласе облаков (PDF).
T - Температура воздуха - температура, измеренная на высоте 2 м над землей.
Td - Температура точки росы - температура, при понижении до которой содержащийся в воздухе водяной пар достигнет насыщения.
f - Относительная влажность воздуха - влажноcть воздуха, измеренная на высоте 2 м над землей.
Te - Эффективная температура - температура, которую ощущает одетый по сезону человек в тени. Характеристика душности погоды. При расчете учитывается влияние влажности воздуха и скорости ветра на теплоощущения человека.
Tes - Эффективная температура на солнце - температура, которую ощущает человек, с поправкой на солнечный нагрев. Характеристика знойности погоды. Зависит от высоты солнца над горизонтом, облачности и скорости ветра. Ночью, в пасмурную погоду, а также при ветре 12 м/с и более поправка равна нулю.
P - Атмосферное давление - приведенное к уровню моря атмосферное давление.
Po - Атмосферное давление - измеренное на уровне метеостанции атмосферное давление.
Tmin - Минимальная температура - минимум температуры воздуха на высоте 2 м над землей.
Tmax - Максимальная температура - максимум температуры воздуха на высоте 2 м над землей.
R - Количество осадков - Количество выпавших осадков за период времени, мм. При наведении курсора мыши на число - период времени, за который выпало указанное количество осадков.
R24 - Количество осадков - Количество выпавших осадков за 24 часа, мм.
S - Снежный покров - Высота снежного покрова, см. При наведении курсора мыши на число - состояние снежного покрова и степень покрытия местности в баллах.